CW2750 Weather Reports


time (UTC)temp
F
wind
direction
speed
knots
gust
knots
rain 1hr
in
rain 24hr
in
rain mn
in
humidity
%
barometer
mb
20260505233934 62 343 0.0 2.6 0.00 0.00 0.00 62 1014.9
20260505233437 62 41 0.0 0.0 0.00 0.00 0.00 62 1015.0
20260505233207 62 42 0.0 2.6 0.00 0.00 0.00 62 1015.0
20260505232707 62 47 0.0 2.6 0.00 0.00 0.00 62 1015.0
20260505232205 62 332 0.0 0.0 0.00 0.00 0.00 61 1015.0
20260505231426 62 332 0.0 0.0 0.00 0.00 0.00 61 1015.0
20260505230924 62 332 0.0 0.0 0.00 0.00 0.00 62 1015.0
20260505230424 62 332 0.0 2.6 0.00 0.00 0.00 61 1015.0
20260505225920 62 332 0.0 2.6 0.00 0.00 0.00 61 1015.0
20260505225422 62 332 0.0 0.9 0.00 0.00 0.00 61 1015.0
20260505224921 62 332 0.0 0.0 0.00 0.00 0.00 60 1015.1
20260505224421 62 332 0.0 0.0 0.00 0.00 0.00 61 1015.1
20260505223921 62 332 0.0 0.0 0.00 0.00 0.00 60 1015.1
20260505223420 62 332 0.0 0.0 0.00 0.00 0.00 60 1015.2
20260505222920 63 332 0.0 0.0 0.00 0.00 0.00 60 1015.2
20260505222423 63 332 0.0 0.0 0.00 0.00 0.00 58 1015.2
20260505221923 63 333 0.0 0.0 0.00 0.00 0.00 60 1015.2
20260505221423 63 332 0.0 0.0 0.00 0.00 0.00 59 1015.2
20260505220907 63 332 0.0 4.3 0.00 0.00 0.00 59 1015.2
20260505220408 62 332 0.0 4.3 0.00 0.00 0.00 60 1015.3
20260505215910 62 340 0.0 0.0 0.00 0.00 0.00 60 1015.3
20260505215625 62 340 0.0 0.0 0.00 0.00 0.00 61 1015.3
20260505214854 62 340 0.0 0.0 0.00 0.00 0.00 62 1015.5
20260505214626 62 340 0.0 0.0 0.00 0.00 0.00 62 1015.5
20260505213854 61 340 0.0 4.3 0.00 0.00 0.00 63 1015.5
20260505213351 61 340 0.0 4.3 0.00 0.00 0.00 63 1015.7
20260505213123 61 0 0.0 0.0 0.00 0.00 0.00 63 1015.7
20260505212352 61 18 0.0 0.0 0.00 0.00 0.00 63 1015.7
20260505211851 61 16 0.0 0.0 0.00 0.00 0.00 63 1015.7
20260505211352 61 16 0.0 0.0 0.00 0.00 0.00 63 1015.7
20260505210851 61 16 0.0 0.0 0.00 0.00 0.00 64 1015.7
20260505210353 61 16 0.0 0.9 0.00 0.00 0.00 63 1015.5
20260505205352 61 16 0.0 0.0 0.00 0.00 0.00 63 1015.5
20260505204852 61 16 0.0 0.0 0.00 0.00 0.00 61 1015.6
20260505204352 62 10 0.0 0.9 0.00 0.00 0.00 61 1015.6
20260505203346 62 11 0.0 0.0 0.00 0.00 0.00 62 1015.7
20260505202340 61 11 0.0 0.0 0.00 0.00 0.00 64 1015.7
20260505201841 60 339 0.0 0.0 0.00 0.00 0.00 65 1015.8
20260505201339 60 339 0.0 0.0 0.00 0.00 0.00 65 1015.8
20260505200838 60 339 0.0 2.6 0.00 0.00 0.00 64 1015.8
20260505200333 60 339 0.0 2.6 0.00 0.00 0.00 64 1015.8
20260505195823 60 339 0.0 2.6 0.00 0.00 0.00 63 1015.8
20260505195327 60 339 0.0 0.0 0.00 0.00 0.00 65 1015.8
20260505194824 60 339 0.0 0.0 0.00 0.00 0.00 65 1016.1
20260505194326 60 339 0.0 0.0 0.00 0.00 0.00 65 1016.1
20260505193825 60 339 0.0 0.0 0.00 0.00 0.00 65 1016.1
20260505193556 60 339 0.0 2.6 0.00 0.00 0.00 65 1016.1
20260505192825 59 339 0.0 2.6 0.00 0.00 0.00 65 1016.1
20260505192545 59 342 0.0 0.0 0.00 0.00 0.00 65 1016.1
20260505191809 59 349 0.0 2.6 0.00 0.00 0.00 66 1016.0
20260505191541 59 349 0.0 2.6 0.00 0.00 0.00 66 1016.0
20260505190802 59 52 0.0 0.9 0.00 0.00 0.00 68 1016.0
20260505190256 59 52 0.0 0.9 0.00 0.00 0.00 68 1016.0
20260505185754 59 52 0.0 0.9 0.00 0.00 0.00 69 1016.0
20260505185526 59 52 0.0 0.9 0.00 0.00 0.00 66 1016.0
20260505184756 59 313 0.0 1.7 0.00 0.00 0.00 66 1015.9
20260505184256 59 80 0.0 1.7 0.00 0.00 0.00 66 1015.9
20260505183755 59 302 0.0 5.2 0.00 0.00 0.00 65 1015.9
20260505183254 59 304 0.0 5.2 0.00 0.00 0.00 65 1015.9
20260505182756 59 305 0.9 7.0 0.00 0.00 0.00 65 1015.9
20260505182254 59 6 0.9 7.0 0.00 0.00 0.00 65 1015.9
20260505181754 59 333 0.0 4.3 0.00 0.00 0.00 64 1015.8
20260505181525 59 343 0.0 2.6 0.00 0.00 0.00 65 1015.8
20260505180754 58 301 0.0 0.9 0.00 0.00 0.00 64 1015.8
20260505180254 58 301 0.0 0.0 0.00 0.00 0.00 65 1015.7
20260505175755 58 301 0.0 2.6 0.00 0.00 0.00 64 1015.7
20260505175256 58 301 0.0 2.6 0.00 0.00 0.00 64 1015.7
20260505174755 58 301 0.0 0.0 0.00 0.00 0.00 65 1015.4
20260505174255 58 301 0.0 0.0 0.00 0.00 0.00 64 1015.4
20260505173748 58 301 0.0 0.0 0.00 0.00 0.00 64 1015.4
20260505173243 58 301 0.0 0.0 0.00 0.00 0.00 65 1015.3
20260505173015 58 301 0.0 0.0 0.00 0.00 0.00 65 1015.3
20260505172244 58 301 0.0 0.0 0.00 0.00 0.00 65 1015.3
20260505172011 57 299 0.0 1.7 0.00 0.00 0.00 65 1015.2
20260505171228 58 299 0.0 1.7 0.00 0.00 0.00 65 1015.3
20260505170727 58 299 0.0 0.0 0.00 0.00 0.00 65 1015.3
20260505170500 58 299 0.0 0.0 0.00 0.00 0.00 65 1015.3
20260505165217 57 299 0.0 0.0 0.00 0.00 0.00 66 1015.2
20260505164718 57 299 0.0 0.0 0.00 0.00 0.00 66 1015.2
20260505164219 57 299 0.0 0.0 0.00 0.00 0.00 66 1015.2
20260505163713 57 299 0.0 0.0 0.00 0.00 0.00 66 1015.1
20260505163213 57 299 0.0 0.0 0.00 0.00 0.00 66 1015.1
20260505162713 57 299 0.0 0.0 0.00 0.00 0.00 66 1015.1
20260505162443 57 299 0.0 0.0 0.00 0.00 0.00 67 1014.9
20260505161711 57 322 0.0 0.0 0.00 0.00 0.00 67 1014.9
20260505161202 57 322 0.0 0.0 0.00 0.00 0.00 68 1014.9
20260505160658 56 322 0.0 0.0 0.00 0.00 0.00 67 1015.1
20260505160200 56 322 0.0 0.0 0.00 0.00 0.00 67 1015.1
20260505153143 55 0 0.0 0.0 0.00 0.00 0.00 70 1014.9
20260505152644 55 288 0.0 0.0 0.00 0.00 0.00 70 1014.9
20260505152144 55 288 0.0 0.0 0.00 0.00 0.00 70 1014.7
20260505151656 55 288 0.0 0.0 0.00 0.00 0.00 70 1014.7
20260505151145 55 288 0.0 0.0 0.00 0.00 0.00 70 1014.7
20260505150644 55 288 0.0 0.0 0.00 0.00 0.00 71 1014.7
20260505150142 55 288 0.0 0.0 0.00 0.00 0.00 71 1014.7
20260505140631 54 333 0.0 0.0 0.00 0.00 0.00 71 1014.2
20260505140116 54 333 0.0 0.0 0.00 0.00 0.00 72 1014.2
20260505124603 53 333 0.0 0.0 0.00 0.00 0.00 72 1014.1
20260505124103 53 333 0.0 0.0 0.00 0.00 0.00 72 1014.1
20260505123603 53 333 0.0 0.0 0.00 0.00 0.00 71 1014.2
20260505123104 54 333 0.0 0.0 0.00 0.00 0.00 71 1014.2
20260505122833 54 333 0.0 0.0 0.00 0.00 0.00 70 1014.2
20260505122117 54 332 0.0 0.0 0.00 0.00 0.00 70 1014.4
20260505121602 54 333 0.0 0.0 0.00 0.00 0.00 70 1014.4
20260505121102 54 333 0.0 0.0 0.00 0.00 0.00 70 1014.4
20260505120604 54 333 0.0 0.0 0.00 0.00 0.00 70 1014.4
20260505120109 54 333 0.0 0.0 0.00 0.00 0.00 70 1014.4
20260505115602 54 333 0.0 0.0 0.00 0.00 0.00 70 1014.4
20260505115103 54 335 0.0 0.0 0.00 0.00 0.00 69 1014.3
20260505114603 54 335 0.0 0.0 0.00 0.00 0.00 69 1014.3
20260505113548 54 335 0.0 0.0 0.00 0.00 0.00 68 1014.2
20260505113049 54 335 0.0 0.0 0.00 0.00 0.00 68 1014.2
20260505112820 54 335 0.0 0.0 0.00 0.00 0.00 68 1014.2
20260505112049 54 335 0.0 0.0 0.00 0.00 0.00 68 1014.3
20260505111819 54 335 0.0 0.0 0.00 0.00 0.00 68 1014.3
20260505111045 54 335 0.0 0.0 0.00 0.00 0.00 67 1014.3
20260505110535 54 335 0.0 0.0 0.00 0.00 0.00 67 1014.2
20260505102004 54 335 0.0 0.0 0.00 0.00 0.00 64 1014.3
20260505101504 54 335 0.0 0.0 0.00 0.00 0.00 63 1014.3
20260505101005 55 335 0.0 0.0 0.00 0.00 0.00 63 1014.3
20260505100517 55 335 0.0 0.0 0.00 0.00 0.00 63 1014.3
20260505100235 55 335 0.0 0.9 0.00 0.00 0.00 63 1014.3
20260505095509 55 335 0.0 0.9 0.00 0.00 0.00 63 1014.3
20260505095008 55 335 0.0 0.0 0.00 0.00 0.00 64 1014.5
20260505094506 55 335 0.0 0.0 0.00 0.00 0.00 64 1014.5
20260505094005 55 335 0.0 2.6 0.00 0.00 0.00 64 1014.5
20260505093506 55 312 0.0 2.6 0.00 0.00 0.00 65 1014.4
20260505093005 55 315 0.0 0.0 0.00 0.00 0.00 66 1014.4
20260505092507 55 315 0.0 0.0 0.00 0.00 0.00 66 1014.4
20260505092006 55 315 0.0 0.0 0.00 0.00 0.00 67 1014.6
20260505091505 55 315 0.0 2.6 0.00 0.00 0.00 67 1014.6
20260505091005 55 315 0.0 2.6 0.00 0.00 0.00 67 1014.6
20260505090506 55 298 0.0 0.0 0.00 0.00 0.00 67 1014.8
20260505090003 55 298 0.0 0.9 0.00 0.00 0.00 66 1014.8
20260505085505 55 299 0.0 0.9 0.00 0.00 0.00 66 1014.8
20260505085005 55 299 0.0 5.2 0.00 0.00 0.00 65 1014.9
20260505084453 55 299 0.0 5.2 0.00 0.00 0.00 65 1014.9
20260505083952 55 298 0.0 4.3 0.00 0.00 0.00 65 1014.9
20260505083452 55 304 0.0 4.3 0.00 0.00 0.00 65 1014.9
20260505082948 55 301 0.0 5.2 0.00 0.00 0.00 65 1014.9
20260505082443 56 305 0.9 6.1 0.00 0.00 0.00 65 1014.9
20260505081945 56 305 0.9 6.1 0.00 0.00 0.00 66 1014.9
20260505081710 56 282 0.0 2.6 0.00 0.00 0.00 66 1014.9
20260505080937 56 288 0.9 3.5 0.00 0.00 0.00 68 1014.9
20260505080440 56 277 0.0 4.3 0.00 0.00 0.00 69 1015.0
20260505075936 56 284 0.9 4.3 0.00 0.00 0.00 70 1015.0
20260505075438 56 311 0.9 4.3 0.00 0.00 0.00 70 1015.0
20260505074937 56 350 0.0 4.3 0.00 0.00 0.00 70 1014.8
20260505074429 56 281 0.0 4.3 0.00 0.00 0.00 70 1014.8
20260505073926 56 271 0.0 4.3 0.00 0.00 0.00 70 1014.8
20260505073426 56 302 0.0 5.2 0.00 0.00 0.00 70 1014.8
20260505072928 56 299 0.0 5.2 0.00 0.00 0.00 71 1014.8
20260505072410 56 308 0.0 0.0 0.00 0.00 0.00 72 1014.8
20260505071908 56 309 0.0 0.0 0.00 0.00 0.00 71 1014.7
20260505071406 56 306 0.0 0.0 0.00 0.00 0.00 71 1014.7
20260505070907 56 306 0.0 0.0 0.00 0.00 0.00 71 1014.7
20260505070411 56 306 0.0 1.7 0.00 0.00 0.00 71 1014.6
20260505065638 57 309 0.0 0.9 0.00 0.00 0.00 71 1014.6
20260505064907 57 309 0.0 0.9 0.00 0.00 0.00 71 1014.6
20260505064407 57 315 0.0 0.0 0.00 0.00 0.00 70 1014.6
20260505064138 57 315 0.0 2.6 0.00 0.00 0.00 70 1014.6
20260505063405 57 318 0.0 2.6 0.00 0.00 0.00 70 1014.5
20260505062901 57 315 0.0 2.6 0.00 0.00 0.00 70 1014.5
20260505062354 57 326 0.0 0.9 0.00 0.00 0.00 70 1014.5
20260505061853 57 289 0.0 2.6 0.00 0.00 0.00 70 1014.4
20260505061354 57 289 0.0 2.6 0.00 0.00 0.00 70 1014.4
20260505060854 57 289 0.0 0.0 0.00 0.00 0.00 71 1014.4
20260505060353 57 289 0.0 0.9 0.00 0.00 0.00 70 1014.5
20260505055856 57 289 0.0 0.9 0.00 0.00 0.00 70 1014.5
20260505055356 57 289 0.0 0.0 0.00 0.00 0.00 70 1014.5
20260505055125 57 288 0.0 0.0 0.00 0.00 0.00 69 1014.7
20260505054354 57 288 0.0 0.0 0.00 0.00 0.00 69 1014.7
20260505053854 57 288 0.0 0.0 0.00 0.00 0.00 68 1014.8
20260505053344 57 322 0.0 0.0 0.00 0.00 0.00 68 1015.0
20260505052842 57 322 0.0 2.6 0.00 0.00 0.00 68 1015.0
20260505052341 57 323 0.0 2.6 0.00 0.00 0.00 67 1015.0
20260505051840 57 316 0.0 0.9 0.00 0.00 0.00 67 1015.0
20260505051340 58 322 0.0 4.3 0.00 0.00 0.00 67 1015.0
20260505050853 58 305 0.0 4.3 0.00 0.00 0.00 67 1015.0
20260505050339 58 311 0.9 5.2 0.00 0.00 0.00 66 1014.9
20260505041328 59 285 0.0 1.7 0.00 0.00 0.00 64 1014.5
20260505041059 59 285 0.0 4.3 0.00 0.00 0.00 64 1014.5
20260505040326 59 285 0.9 7.0 0.00 0.00 0.00 63 1014.2
20260505040043 59 329 0.9 7.0 0.00 0.00 0.00 63 1014.2
20260505035312 59 326 0.0 4.3 0.00 0.00 0.00 63 1014.2
20260505034813 59 301 0.0 2.6 0.00 0.00 0.00 63 1014.0
20260505034311 59 298 0.0 2.6 0.00 0.00 0.00 63 1014.0
20260505034041 59 298 0.0 2.6 0.00 0.00 0.00 62 1014.0
20260505033312 59 301 0.0 1.7 0.00 0.00 0.00 62 1013.8
20260505033033 59 299 0.0 2.6 0.00 0.00 0.00 61 1013.8
20260505032258 59 306 0.0 2.6 0.00 0.00 0.00 61 1013.8
20260505031810 59 301 0.0 4.3 0.00 0.00 0.00 61 1013.8
20260505031530 60 301 0.9 5.2 0.00 0.00 0.00 60 1013.8
20260505030759 60 320 0.9 6.1 0.00 0.00 0.00 60 1013.8
20260505030258 60 315 0.0 6.1 0.00 0.00 0.00 60 1013.9
20260505025755 60 288 0.0 2.6 0.00 0.00 0.00 61 1013.9
20260505025526 60 287 0.0 1.7 0.00 0.00 0.00 60 1013.9
20260505024754 60 284 0.0 1.7 0.00 0.00 0.00 60 1013.8
20260505024245 60 282 0.9 5.2 0.00 0.00 0.00 60 1013.8
20260505023743 60 271 0.9 5.2 0.00 0.00 0.00 59 1013.8
20260505023515 60 313 0.0 4.3 0.00 0.00 0.00 58 1013.9
20260505022730 61 308 0.0 4.3 0.00 0.00 0.00 58 1013.9
20260505022228 61 305 0.0 0.9 0.00 0.00 0.00 56 1013.9
20260505021727 61 304 0.0 0.9 0.00 0.00 0.00 56 1013.8
20260505021216 61 301 0.0 7.0 0.00 0.00 0.00 55 1013.8
20260505020211 62 350 0.0 2.6 0.00 0.00 0.00 54 1013.7
20260505015709 62 342 0.0 2.6 0.00 0.00 0.00 55 1013.7
20260505015209 62 45 0.0 4.3 0.00 0.00 0.00 54 1013.7
20260505014710 62 311 0.0 6.1 0.00 0.00 0.00 54 1013.7
20260505014209 62 305 0.0 6.1 0.00 0.00 0.00 55 1013.7
20260505013941 62 309 0.0 4.3 0.00 0.00 0.00 55 1013.8
20260505013443 62 281 0.9 7.0 0.00 0.00 0.00 54 1013.8
20260505012711 62 322 0.9 7.0 0.00 0.00 0.00 54 1013.8
20260505012209 62 315 0.9 7.0 0.00 0.00 0.00 55 1013.9
20260505011941 62 298 0.9 7.0 0.00 0.00 0.00 54 1013.9
20260505011211 62 308 0.0 5.2 0.00 0.00 0.00 54 1013.9
20260505010709 63 299 0.9 7.0 0.00 0.00 0.00 54 1014.0
20260505010210 63 316 0.9 7.0 0.00 0.00 0.00 54 1014.0
20260505005710 63 353 0.0 0.9 0.00 0.00 0.00 54 1014.0
20260505005210 63 294 0.0 1.7 0.00 0.00 0.00 54 1014.2
20260505004710 63 282 0.0 4.3 0.00 0.00 0.00 54 1014.2
20260505004206 64 305 0.0 4.3 0.00 0.00 0.00 53 1014.2
20260505003206 64 14 0.0 6.1 0.00 0.00 0.00 52 1014.1
20260505002707 64 339 0.9 6.1 0.00 0.00 0.00 51 1014.1
20260505002207 65 312 0.9 9.6 0.00 0.00 0.00 50 1013.9
20260505001709 66 352 0.9 9.6 0.00 0.00 0.00 49 1013.9
20260505001207 66 322 0.9 7.0 0.00 0.00 0.00 48 1013.9
20260505000709 66 299 0.9 7.0 0.00 0.00 0.00 50 1013.8
20260505000205 65 306 0.9 7.0 0.00 0.00 0.00 50 1013.7
20260504235705 65 304 0.0 7.0 0.00 0.00 0.00 51 1013.8
20260504235203 65 342 0.0 4.3 0.00 0.00 0.00 52 1013.8
20260504234701 65 311 0.0 5.2 0.00 0.00 0.00 51 1013.8